sat.trackr.live / text

‹ back to catalog

AEROCUBE 5C

NORAD 40965 · 2015-058B

PAYLOAD ACTIVE UNKNOWN

§ Identity

Operator
Country
US
Launch date
2015-10-08
Launch site
AFWTR
Launch vehicle
Mass (kg)
RCS (m²)

Purposes: tech_demo

External: N2YO · Heavens-Above · Gunter

§ Orbital elements

Epoch: 2026-09-20T04:04:55.596288Z

Period
96.52 min
Inclination
64.7672°
Eccentricity
0.0138296
Mean motion
14.91877397 rev/d
Perigee alt
495.7 km
Apogee alt
688.5 km
Semi-major
6,970.2 km
B*
1.0430e-4
RAAN
326.9880°
Arg perigee
27.4892°
Mean anomaly
333.3446°
Rev number
37,982

§ Raw data

AEROCUBE 5C1 40965U 15058B   26263.17008792  .00001084  00000+0  10430-3 0  99992 40965  64.7672 326.9880 0138296  27.4892 333.3446 14.91877397379826

JSON: /api/v1/satellites/40965 · /tle

For live sub-satellite position, see the globe view (requires WebGL).

§ Visibility from observer

Set your observer location to see the next 7 days of passes ≥ 10°. The values pass through the URL so the page stays shareable.

No JS? Fill the form by hand. The geolocation button needs JavaScript.